sat.trackr.live / text

‹ back to catalog

STARLINK-5981

NORAD 56325 · 2023-058J

PAYLOAD ACTIVE UNKNOWN

§ Identity

Operator
Country
US
Launch date
2023-04-27
Launch site
AFWTR
Launch vehicle
Mass (kg)
RCS (m²)

Purposes: comms

External: N2YO · Heavens-Above · Gunter

§ Orbital elements

Epoch: 2026-09-20T22:00:03.000096Z

Period
94.83 min
Inclination
97.2813°
Eccentricity
0.0001692
Mean motion
15.18489288 rev/d
Perigee alt
509.2 km
Apogee alt
511.6 km
Semi-major
6,888.5 km
B*
3.2801e-3
RAAN
257.7412°
Arg perigee
75.1369°
Mean anomaly
313.8072°
Rev number
579

§ Raw data

STARLINK-59811 56325U 23058J   26263.91670139  .00068146  00000+0  32801-2 0  99942 56325  97.2813 257.7412 0001692  75.1369 313.8072 15.18489288  5799

JSON: /api/v1/satellites/56325 · /tle

For live sub-satellite position, see the globe view (requires WebGL).

§ Visibility from observer

Set your observer location to see the next 7 days of passes ≥ 10°. The values pass through the URL so the page stays shareable.

No JS? Fill the form by hand. The geolocation button needs JavaScript.